period_start,C,m1,H,J0,J1,J2,J3,J4,J5,JA,JB,JC,JD,JJ,JK,JN,#
2016-06-06 00:02:23,0.03,2.51,0.00,25.94,29.24,31.89,14.51,48.94,1026.40,2026.58,2552.50,2500.93,2832.16,600.31,596.17,57.14,0000 0000 0000 0000 000000
2016-06-06 00:07:24,0.05,2.51,0.00,25.96,29.25,31.90,14.46,48.77,1026.38,2026.37,2551.49,2500.10,2831.44,599.79,595.61,57.19,0000 0000 0000 0000 000000
2016-06-06 00:12:26,0.05,2.51,0.00,25.97,29.25,31.91,14.49,48.91,1026.38,2026.40,2550.66,2499.66,2830.79,599.94,595.57,57.24,0000 0000 0000 0000 000000
2016-06-06 00:17:28,0.05,2.52,0.00,25.97,29.25,31.89,14.48,48.83,1026.39,2026.52,2549.76,2499.01,2830.03,600.04,595.78,57.29,0000 0000 0000 0000 000000
2016-06-06 00:22:29,0.10,2.52,0.00,25.97,29.25,31.90,14.54,48.78,1026.38,2026.79,2548.78,2498.40,2829.29,599.95,595.60,57.35,0000 0000 0000 0000 000000
2016-06-06 00:27:31,0.03,2.52,0.00,25.98,29.25,31.93,14.36,48.45,1026.38,2026.69,2547.76,2497.80,2828.59,599.68,595.87,57.40,0000 0000 0000 0000 000000
2016-06-06 00:32:32,0.03,2.52,0.00,25.99,29.25,31.92,14.39,48.52,1026.38,2026.32,2546.62,2496.99,2827.61,599.60,595.35,57.45,0000 0000 0000 0000 000000
2016-06-06 00:37:33,0.08,2.53,0.00,26.00,29.26,31.91,14.38,48.63,1026.38,2026.21,2545.31,2496.11,2826.64,600.17,595.83,57.50,0000 0000 0000 0000 000000
2016-06-06 00:42:35,0.07,2.53,0.00,26.00,29.27,31.93,14.52,48.55,1026.38,2026.15,2544.10,2495.45,2825.65,600.11,595.87,57.55,0000 0000 0000 0000 000000
2016-06-06 00:47:36,0.06,2.53,0.00,26.00,29.27,31.93,14.49,48.84,1026.38,2026.13,2542.89,2494.80,2824.70,600.26,595.95,57.60,0000 0000 0000 0000 000000
2016-06-06 00:52:38,0.08,2.54,0.00,25.99,29.27,31.91,14.39,49.01,1026.38,2026.08,2541.32,2493.91,2823.57,599.41,595.17,57.65,0000 0000 0000 0000 000000
2016-06-06 00:57:39,0.08,2.54,0.00,25.98,29.27,31.91,14.50,48.95,1026.38,2026.08,2540.10,2493.05,2822.61,599.94,595.75,57.70,0000 0000 0000 0000 000000
2016-06-06 01:02:40,0.08,2.55,0.00,25.98,29.27,31.94,14.45,48.77,1026.38,2026.07,2538.90,2492.25,2821.62,599.89,595.58,57.75,0000 0000 0000 0000 000000
2016-06-06 01:07:42,0.07,2.55,0.00,25.99,29.27,31.95,14.39,48.75,1026.38,2026.05,2537.81,2491.55,2820.78,599.77,595.55,57.80,0000 0000 0000 0000 000000
2016-06-06 01:12:43,0.06,2.55,0.00,26.00,29.28,31.94,14.44,48.74,1026.38,2026.08,2536.62,2490.85,2819.86,600.04,595.78,57.85,0000 0000 0000 0000 000000
2016-06-06 01:17:45,0.07,2.56,0.00,26.00,29.28,31.93,14.44,48.75,1026.38,2026.05,2535.58,2490.05,2819.02,599.97,595.70,57.90,0000 0000 0000 0000 000000
2016-06-06 01:22:46,0.06,2.56,0.00,26.00,29.28,31.92,14.45,48.77,1026.38,2026.05,2534.74,2489.49,2818.20,599.85,595.35,57.95,0000 0000 0000 0000 000000
2016-06-06 01:27:47,0.06,2.56,0.00,26.00,29.29,31.93,14.48,48.66,1026.39,2026.06,2533.74,2488.97,2817.46,600.03,595.77,58.00,0000 0000 0000 0000 000000
2016-06-06 01:32:48,0.04,2.57,0.00,26.00,29.29,31.94,14.42,48.64,1026.40,2026.07,2533.01,2488.23,2816.93,600.13,596.06,58.05,0000 0000 0000 0000 000000
2016-06-06 01:37:50,0.04,2.57,0.00,26.00,29.30,31.94,14.40,48.40,1026.39,2026.12,2532.16,2487.97,2816.14,599.82,595.58,58.10,0000 0000 0000 0000 000000
2016-06-06 01:42:51,0.05,2.57,0.00,26.00,29.30,31.94,14.48,48.65,1026.40,2026.15,2531.57,2487.30,2815.82,599.80,595.73,58.15,0000 0000 0000 0000 000000
2016-06-06 01:47:52,0.04,2.57,0.00,26.00,29.30,31.96,14.55,48.76,1026.40,2026.13,2530.72,2486.96,2815.04,600.31,596.08,58.20,0000 0000 0000 0000 000000
2016-06-06 01:52:53,0.06,2.58,0.00,26.01,29.30,31.95,14.39,48.37,1026.39,2026.13,2529.90,2486.19,2814.50,599.44,595.26,58.25,0000 0000 0000 0000 000000
2016-06-06 01:57:55,0.02,2.58,0.00,26.01,29.30,31.94,14.42,48.39,1026.41,2026.17,2529.06,2485.99,2813.98,599.77,595.41,58.31,0000 0000 0000 0000 000000
2016-06-06 02:02:56,0.06,2.58,0.00,26.02,29.30,31.94,14.42,48.48,1026.40,2026.18,2528.44,2485.33,2813.15,599.90,595.53,58.36,0000 0000 0000 0000 000000
2016-06-06 02:07:57,0.01,2.58,0.00,26.03,29.30,31.95,14.33,48.33,1026.39,2026.15,2528.01,2485.01,2812.98,599.46,595.37,58.41,0000 0000 0000 0000 000000
2016-06-06 02:12:59,0.06,2.59,0.00,26.05,29.30,31.96,14.39,48.52,1026.39,2026.31,2527.59,2484.86,2812.32,599.72,595.37,58.46,0000 0000 0000 0000 000000
2016-06-06 02:18:00,0.05,2.59,0.00,26.04,29.30,31.95,14.39,48.73,1026.41,2026.30,2526.65,2484.10,2811.95,599.81,595.29,58.51,0000 0000 0000 0000 000000
2016-06-06 02:23:01,0.05,2.59,0.00,26.05,29.30,31.97,14.49,48.88,1026.41,2026.35,2526.01,2483.96,2811.14,600.13,595.86,58.56,0000 0000 0000 0000 000000
2016-06-06 02:28:02,0.02,2.59,0.00,26.07,29.30,31.98,14.37,48.26,1026.42,2026.21,2525.51,2483.30,2810.77,599.83,595.57,58.61,0000 0000 0000 0000 000000
2016-06-06 02:33:04,0.03,2.59,0.00,26.05,29.31,31.97,14.50,48.67,1026.44,2026.15,2524.81,2483.00,2810.06,600.21,595.86,58.66,0000 0000 0000 0000 000000
2016-06-06 02:38:05,0.04,2.60,0.00,26.06,29.32,31.95,14.51,48.78,1026.39,2026.12,2524.07,2482.54,2809.61,600.17,595.86,58.71,0000 0000 0000 0000 000000
2016-06-06 02:43:07,0.02,2.60,0.00,26.07,29.32,31.97,14.49,48.43,1026.40,2026.09,2523.88,2482.03,2809.03,600.28,595.85,58.76,0000 0000 0000 0000 000000
2016-06-06 02:48:08,0.02,2.60,0.00,26.09,29.32,31.98,14.56,48.67,1026.41,2026.09,2523.12,2481.97,2808.85,600.40,595.87,58.81,0000 0000 0000 0000 000000
2016-06-06 02:53:09,0.06,2.60,0.00,26.09,29.32,31.97,14.41,48.30,1026.41,2026.07,2522.61,2481.27,2808.09,599.84,595.37,58.86,0000 0000 0000 0000 000000
2016-06-06 02:58:10,0.01,2.60,0.00,26.10,29.34,31.99,14.46,48.56,1026.41,2026.03,2522.00,2481.00,2807.81,600.17,595.76,58.91,0000 0000 0000 0000 000000
2016-06-06 03:03:12,0.05,2.60,0.00,26.10,29.35,31.99,14.49,48.33,1026.43,2026.04,2521.26,2480.64,2807.06,599.92,595.48,58.96,0000 0000 0000 0000 000000
2016-06-06 03:08:13,0.03,2.61,0.00,26.10,29.35,31.98,14.44,48.46,1026.41,2026.05,2520.90,2480.03,2806.71,600.08,595.52,59.01,0000 0000 0000 0000 000000
2016-06-06 03:13:14,0.02,2.61,0.00,26.11,29.35,31.99,14.56,48.63,1026.40,2026.02,2520.25,2479.97,2806.05,600.50,595.99,59.06,0000 0000 0000 0000 000000
2016-06-06 03:18:15,0.03,2.61,0.00,26.12,29.37,31.99,14.38,48.37,1026.42,2026.00,2519.93,2479.43,2805.84,599.55,595.04,59.11,0000 0000 0000 0000 000000
2016-06-06 03:23:17,0.04,2.61,0.00,26.13,29.37,31.99,14.46,48.50,1026.42,2026.01,2519.18,2479.01,2805.08,600.22,595.72,59.16,0000 0000 0000 0000 000000
2016-06-06 03:28:18,0.01,2.61,0.00,26.15,29.38,32.03,14.39,48.56,1026.39,2026.00,2518.93,2478.87,2804.94,599.83,595.21,59.21,0000 0000 0000 0000 000000
2016-06-06 03:33:19,0.07,2.62,0.00,26.14,29.40,32.02,14.49,48.39,1026.39,2026.00,2518.16,2478.11,2804.14,600.45,595.88,59.26,0000 0000 0000 0000 000000
2016-06-06 03:38:20,0.00,2.62,0.00,26.16,29.40,32.02,14.39,48.49,1026.41,2026.00,2517.98,2478.00,2804.00,600.26,595.61,59.31,0000 0000 0000 0000 000000
2016-06-06 03:43:22,0.02,2.62,0.00,26.17,29.40,32.06,14.46,48.59,1026.41,2026.00,2517.52,2477.93,2803.65,600.26,595.72,59.36,0000 0000 0000 0000 000000
2016-06-06 03:48:23,0.05,2.62,0.00,26.16,29.42,32.05,14.50,48.62,1026.40,2026.00,2517.03,2477.15,2803.05,600.56,595.97,59.42,0000 0000 0000 0000 000000
2016-06-06 03:53:24,0.02,2.62,0.00,26.17,29.42,32.06,14.48,48.73,1026.39,2026.00,2516.50,2477.00,2802.74,599.64,595.03,59.47,0000 0000 0000 0000 000000
2016-06-06 03:58:26,0.03,2.62,0.00,26.19,29.43,32.06,14.53,48.87,1026.39,2025.99,2515.88,2476.76,2802.06,600.25,595.44,59.52,0000 0000 0000 0000 000000
2016-06-06 04:03:27,0.04,2.63,0.00,26.20,29.44,32.11,14.36,48.41,1026.39,2025.99,2515.30,2476.05,2801.86,599.95,595.21,59.57,0000 0000 0000 0000 000000
2016-06-06 04:08:28,0.02,2.63,0.00,26.20,29.45,32.10,14.47,48.58,1026.38,2025.99,2514.86,2475.99,2801.15,599.97,595.30,59.62,0000 0000 0000 0000 000000
2016-06-06 04:13:29,0.04,2.63,0.00,26.20,29.45,32.08,14.40,48.31,1026.37,2025.97,2514.38,2475.48,2800.86,600.07,595.24,59.67,0000 0000 0000 0000 000000
2016-06-06 04:18:30,0.04,2.63,0.00,26.18,29.45,32.09,14.45,48.32,1026.38,2025.90,2513.56,2474.97,2800.07,599.77,595.21,59.72,0000 0000 0000 0000 000000
2016-06-06 04:23:31,0.07,2.63,0.00,26.16,29.47,32.11,14.39,48.52,1026.36,2025.90,2512.70,2474.37,2799.43,599.84,595.28,59.77,0000 0000 0000 0000 000000
2016-06-06 04:28:33,0.03,2.64,0.00,26.15,29.47,32.11,14.41,48.54,1026.19,2025.82,2511.91,2473.99,2798.82,600.14,595.50,59.82,0000 0000 0000 0000 000000
2016-06-06 04:33:34,0.05,2.64,0.00,26.12,29.47,32.15,14.52,48.35,1026.23,2025.86,2511.15,2473.49,2798.09,600.36,595.65,59.87,0000 0000 0000 0000 000000
2016-06-06 04:38:35,0.04,2.64,0.00,26.09,29.46,32.17,14.52,48.67,1026.26,2025.88,2510.40,2473.02,2797.61,600.45,595.93,59.92,0000 0000 0000 0000 000000
2016-06-06 04:43:36,0.04,2.64,0.00,26.06,29.45,32.19,14.51,48.62,1026.28,2025.95,2509.70,2472.80,2797.00,599.85,595.49,59.97,0000 0000 0000 0000 000000
2016-06-06 04:48:37,0.05,2.65,0.00,26.05,29.45,32.15,14.51,48.57,1026.26,2025.97,2509.01,2472.08,2796.34,600.37,596.05,60.02,0000 0000 0000 0000 000000
2016-06-06 04:53:38,0.02,2.65,0.00,26.05,29.44,32.14,14.47,48.62,1026.34,2025.96,2508.28,2471.99,2796.00,599.95,595.42,60.07,0000 0000 0000 0000 000000
2016-06-06 04:58:39,0.03,2.30,0.00,26.05,29.43,32.13,12.81,42.97,1026.33,2026.25,2648.41,2560.21,2898.00,530.86,526.96,0.00,0000 0000 0000 0000 000002
2016-06-06 05:03:41,0.02,0.00,0.00,26.06,29.43,32.09,14.47,47.14,1026.35,2028.00,3556.24,3133.56,3563.81,599.76,595.37,0.02,0000 0000 0000 0000 000000
2016-06-06 05:08:42,0.02,0.00,0.00,26.07,29.42,32.05,14.47,47.21,1026.33,2028.00,3553.90,3132.94,3562.95,600.51,596.05,0.07,0000 0000 0000 0000 000000
2016-06-06 05:13:43,0.02,0.00,0.00,26.05,29.42,32.11,14.48,47.07,1026.31,2028.00,3552.83,3132.27,3562.07,600.01,595.59,0.12,0000 0000 0000 0000 000000
2016-06-06 05:18:44,0.02,0.00,0.00,26.02,29.42,32.09,14.33,46.73,1026.35,2028.00,3552.01,3132.00,3561.27,600.14,595.80,0.17,0000 0000 0000 0000 000000
2016-06-06 05:23:46,0.02,0.00,0.00,26.01,29.41,32.09,14.40,46.74,1026.23,2028.00,3551.22,3131.88,3560.91,600.33,596.09,0.22,0000 0000 0000 0000 000000
2016-06-06 05:28:47,0.04,0.00,0.00,25.98,29.40,32.07,14.48,46.63,1026.14,2028.00,3550.24,3131.21,3560.10,600.40,596.03,0.27,0000 0000 0000 0000 000000
2016-06-06 05:33:48,0.02,0.00,0.00,25.92,29.40,32.05,14.53,46.59,1025.99,2028.00,3549.67,3131.00,3559.77,599.83,595.47,0.32,0000 0000 0000 0000 000000
2016-06-06 05:38:49,0.01,0.01,0.00,25.83,29.38,32.07,14.42,46.46,1025.91,2028.00,3548.97,3131.00,3559.06,600.47,596.28,0.37,0000 0000 0000 0000 000000
2016-06-06 05:43:51,0.02,0.01,0.00,25.75,29.37,32.09,14.52,46.66,1025.91,2028.00,3548.23,3130.81,3558.74,599.93,595.93,0.42,0000 0000 0000 0000 000000
2016-06-06 05:48:52,0.02,0.01,0.00,25.66,29.35,32.12,14.50,46.60,1025.90,2028.00,3547.91,3130.25,3558.06,599.64,595.92,0.47,0000 0000 0000 0000 000000
2016-06-06 05:53:53,0.01,0.01,0.00,25.60,29.34,32.09,14.46,46.52,1025.90,2028.00,3547.10,3130.02,3557.86,600.24,596.46,0.52,0000 0000 0000 0000 000000
2016-06-06 05:58:55,0.02,0.01,0.00,25.56,29.32,31.97,14.52,46.64,1025.90,2028.01,3546.49,3130.00,3557.11,599.96,596.29,0.57,0000 0000 0000 0000 000000
2016-06-06 06:03:56,0.00,0.01,0.00,25.52,29.31,31.96,14.48,46.61,1025.90,2028.02,3546.01,3129.99,3557.00,599.91,596.29,0.62,0000 0000 0000 0000 000000
2016-06-06 06:08:58,0.03,0.01,0.00,25.48,29.29,31.99,14.57,46.90,1025.90,2028.10,3545.37,3129.90,3556.60,599.97,596.55,0.67,0000 0000 0000 0000 000000
2016-06-06 06:13:59,0.03,0.01,0.00,25.46,29.27,32.02,14.53,46.79,1025.90,2028.25,3544.90,3129.37,3556.02,600.85,597.17,0.72,0000 0000 0000 0000 000000
2016-06-06 06:19:00,0.05,0.02,0.00,25.45,29.25,32.00,14.56,46.68,1025.90,2028.51,3544.17,3129.04,3555.94,600.06,596.68,0.77,0000 0000 0000 0000 000000
2016-06-06 06:24:01,0.03,0.02,0.00,25.45,29.23,32.00,14.46,46.51,1025.90,2028.90,3543.90,3129.00,3555.25,599.98,596.47,0.82,0000 0000 0000 0000 000000
2016-06-06 06:29:03,0.01,0.02,0.00,25.46,29.21,31.92,14.55,46.64,1025.90,2028.95,3543.14,3129.00,3555.00,600.27,596.93,0.87,0000 0000 0000 0000 000000
2016-06-06 06:34:04,0.01,0.02,0.00,25.50,29.20,31.89,14.57,46.48,1025.90,2028.98,3542.89,3128.98,3554.82,600.20,596.67,0.92,0000 0000 0000 0000 000000
2016-06-06 06:39:05,0.03,0.02,0.00,25.51,29.17,31.81,14.45,46.45,1025.89,2028.99,3542.10,3128.67,3554.05,599.62,596.11,0.97,0000 0000 0000 0000 000000
2016-06-06 06:44:06,0.01,0.02,0.00,25.53,29.16,31.85,14.48,46.48,1025.89,2028.99,3541.78,3128.18,3553.97,600.06,596.53,1.02,0000 0000 0000 0000 000000
2016-06-06 06:49:08,0.02,0.02,0.00,25.55,29.15,31.78,14.48,46.60,1025.89,2028.99,3541.04,3128.01,3553.26,599.77,596.04,1.07,0000 0000 0000 0000 000000
2016-06-06 06:54:09,0.01,0.03,0.00,25.56,29.14,31.76,14.46,46.35,1025.88,2028.99,3540.39,3127.99,3552.97,600.03,596.53,1.12,0000 0000 0000 0000 000000
2016-06-06 06:59:11,0.02,0.03,0.00,25.57,29.12,31.82,14.52,46.67,1025.89,2028.99,3539.88,3127.76,3552.31,600.27,596.57,1.17,0000 0000 0000 0000 000000
2016-06-06 07:04:12,0.03,0.03,0.00,25.60,29.12,31.76,14.53,46.67,1025.89,2028.99,3539.07,3127.09,3552.00,600.22,596.34,1.22,0000 0000 0000 0000 000000
2016-06-06 07:09:13,0.02,0.03,0.00,25.60,29.12,31.74,14.44,46.58,1025.88,2029.01,3538.41,3126.99,3551.59,599.90,596.13,1.27,0000 0000 0000 0000 000000
2016-06-06 07:14:14,0.02,0.03,0.00,25.60,29.12,31.78,14.38,46.31,1025.86,2029.03,3537.71,3126.81,3550.97,599.93,596.17,1.32,0000 0000 0000 0000 000000
2016-06-06 07:19:15,0.04,0.03,0.00,25.62,29.12,31.76,14.61,46.85,1025.86,2029.08,3536.98,3126.16,3550.26,600.27,596.55,1.37,0000 0000 0000 0000 000000
2016-06-06 07:24:17,0.01,0.03,0.00,25.63,29.11,31.82,14.45,46.70,1025.83,2029.05,3536.11,3125.99,3549.81,600.10,596.20,1.42,0000 0000 0000 0000 000000
2016-06-06 07:29:18,0.02,0.04,0.00,25.63,29.11,31.83,14.51,46.77,1025.71,2029.06,3535.70,3125.81,3549.07,600.20,596.21,1.47,0000 0000 0000 0000 000000
2016-06-06 07:34:19,0.03,0.04,0.00,25.64,29.11,31.75,14.47,46.55,1025.63,2029.02,3534.91,3125.07,3548.65,600.00,595.82,1.52,0000 0000 0000 0000 000000
2016-06-06 07:39:21,0.02,0.04,0.00,25.66,29.11,31.78,14.31,46.27,1025.76,2029.05,3534.14,3124.99,3548.02,599.65,595.45,1.57,0000 0000 0000 0000 000000
2016-06-06 07:44:22,0.04,0.04,0.00,25.67,29.12,31.74,14.36,46.42,1025.84,2029.05,3533.50,3124.50,3547.48,599.76,595.86,1.62,0000 0000 0000 0000 000000
2016-06-06 07:49:23,0.01,0.04,0.00,25.67,29.12,31.75,14.51,46.69,1025.87,2029.04,3532.93,3124.02,3547.01,600.13,596.20,1.67,0000 0000 0000 0000 000000
2016-06-06 07:54:24,0.02,0.04,0.00,25.67,29.12,31.74,14.48,46.52,1025.87,2029.04,3532.19,3123.98,3546.51,600.15,596.13,1.72,0000 0000 0000 0000 000000
2016-06-06 07:59:26,0.03,0.04,0.00,25.68,29.12,31.74,14.41,46.62,1025.88,2029.06,3531.67,3123.52,3546.00,599.81,595.88,1.77,0000 0000 0000 0000 000000
2016-06-06 08:04:27,0.02,0.05,0.00,25.69,29.12,31.81,14.50,46.75,1025.87,2029.05,3530.95,3123.02,3545.39,599.89,595.94,1.82,0000 0000 0000 0000 000000
2016-06-06 08:09:28,0.01,0.05,0.00,25.70,29.12,31.78,14.50,46.96,1025.89,2029.01,3530.19,3122.96,3545.00,600.41,596.29,1.87,0000 0000 0000 0000 000000
2016-06-06 08:14:29,0.04,0.05,0.00,25.70,29.12,31.77,14.49,46.68,1025.89,2029.02,3529.72,3122.39,3544.48,600.61,596.53,1.92,0000 0000 0000 0000 000000
2016-06-06 08:19:31,0.01,0.05,0.00,25.70,29.13,31.78,14.50,46.82,1025.90,2029.02,3529.02,3122.01,3543.99,599.90,595.97,1.97,0000 0000 0000 0000 000000
2016-06-06 08:24:32,0.04,0.05,0.00,25.70,29.14,31.80,14.32,46.28,1025.90,2029.01,3528.20,3121.47,3543.16,599.42,595.47,2.02,0000 0000 0000 0000 000000
2016-06-06 08:29:34,0.00,0.05,0.00,25.70,29.15,31.77,14.39,46.70,1025.90,2029.01,3528.00,3121.02,3542.97,599.94,596.00,2.08,0000 0000 0000 0000 000000
2016-06-06 08:34:35,0.02,0.05,0.00,25.69,29.15,31.76,14.33,46.17,1025.89,2029.00,3527.37,3120.99,3542.36,599.66,595.67,2.13,0000 0000 0000 0000 000000
2016-06-06 08:39:36,0.01,0.05,0.00,25.67,29.15,31.76,14.42,46.31,1025.89,2029.01,3526.86,3120.77,3542.00,599.75,595.82,2.18,0000 0000 0000 0000 000000
2016-06-06 08:44:38,0.04,0.06,0.00,25.66,29.15,31.79,14.48,46.44,1025.89,2029.00,3526.05,3120.15,3541.37,599.83,595.98,2.23,0000 0000 0000 0000 000000
2016-06-06 08:49:39,0.01,0.06,0.00,25.67,29.15,31.80,14.52,46.70,1025.89,2029.02,3525.46,3120.00,3541.01,600.52,596.43,2.28,0000 0000 0000 0000 000000
2016-06-06 08:54:40,0.01,0.06,0.00,25.65,29.15,31.79,14.54,46.61,1025.89,2029.00,3525.02,3119.99,3540.79,600.18,596.40,2.33,0000 0000 0000 0000 000000
2016-06-06 08:59:41,0.02,0.06,0.00,25.65,29.15,31.80,14.48,46.72,1025.89,2029.01,3524.52,3119.75,3540.11,599.99,596.00,2.38,0000 0000 0000 0000 000000
2016-06-06 09:04:42,0.02,0.06,0.00,25.66,29.15,31.81,14.49,46.67,1025.89,2029.01,3524.04,3119.31,3540.00,599.83,595.95,2.43,0000 0000 0000 0000 000000
2016-06-06 09:09:44,0.02,0.06,0.00,25.65,29.15,31.79,14.32,46.23,1025.89,2029.00,3523.56,3119.02,3539.59,599.94,596.16,2.48,0000 0000 0000 0000 000000
2016-06-06 09:14:45,0.01,0.06,0.00,25.66,29.15,31.80,14.42,46.56,1025.89,2029.01,3523.00,3118.98,3539.03,599.40,595.47,2.53,0000 0000 0000 0000 000000
2016-06-06 09:19:46,0.02,0.06,0.00,25.65,29.15,31.80,14.44,46.66,1025.89,2029.01,3522.65,3118.78,3538.96,600.10,596.07,2.58,0000 0000 0000 0000 000000
2016-06-06 09:24:48,0.03,0.06,0.00,25.65,29.15,31.80,14.45,46.58,1025.90,2029.01,3522.01,3118.10,3538.23,600.04,596.19,2.63,0000 0000 0000 0000 000000
2016-06-06 09:29:49,0.01,0.06,0.00,25.65,29.15,31.80,14.46,46.57,1025.90,2029.01,3521.35,3117.99,3537.98,600.12,596.16,2.68,0000 0000 0000 0000 000000
2016-06-06 09:34:50,0.03,0.07,0.00,25.65,29.15,31.79,14.44,46.34,1025.91,2029.00,3520.90,3117.75,3537.25,599.89,595.82,2.73,0000 0000 0000 0000 000000
2016-06-06 09:39:51,0.02,0.07,0.00,25.64,29.15,31.80,14.42,46.52,1025.91,2029.00,3520.35,3117.31,3537.00,599.48,595.81,2.78,0000 0000 0000 0000 000000
2016-06-06 09:44:52,0.01,0.07,0.00,25.62,29.15,31.81,14.44,46.63,1025.91,2029.01,3519.92,3117.01,3536.78,600.16,596.39,2.83,0000 0000 0000 0000 000000
2016-06-06 09:49:54,0.02,0.07,0.00,25.62,29.15,31.82,14.53,46.70,1025.90,2029.01,3519.22,3116.99,3536.07,600.12,596.32,2.88,0000 0000 0000 0000 000000
2016-06-06 09:54:55,0.01,0.07,0.00,25.65,29.15,31.82,14.40,46.34,1025.91,2029.00,3518.99,3116.52,3535.96,600.11,596.30,2.93,0000 0000 0000 0000 000000
2016-06-06 09:59:56,0.03,0.07,0.00,25.63,29.15,31.83,14.51,46.43,1025.92,2029.00,3518.30,3116.05,3535.30,600.56,596.57,2.98,0000 0000 0000 0000 000000
2016-06-06 10:04:57,0.00,0.07,0.00,25.63,29.15,31.80,14.45,46.65,1025.95,2029.00,3517.99,3116.00,3535.00,599.55,595.79,3.03,0000 0000 0000 0000 000000
2016-06-06 10:09:58,0.02,0.07,0.00,25.62,29.15,31.80,14.39,46.65,1026.00,2029.01,3517.29,3115.98,3534.80,599.52,595.69,3.08,0000 0000 0000 0000 000000
2016-06-06 10:15:00,0.03,0.07,0.00,25.63,29.15,31.84,14.46,46.38,1026.05,2029.01,3516.91,3115.41,3534.08,600.30,596.41,3.13,0000 0000 0000 0000 000000
2016-06-06 10:20:01,0.02,0.08,0.00,25.63,29.15,31.81,14.41,46.57,1026.12,2029.00,3516.10,3115.01,3533.98,600.42,596.75,3.18,0000 0000 0000 0000 000000
2016-06-06 10:25:02,0.01,0.08,0.00,25.63,29.15,31.80,14.38,46.38,1026.15,2029.00,3515.95,3115.00,3533.33,599.81,596.14,3.23,0000 0000 0000 0000 000000
2016-06-06 10:30:04,0.02,0.08,0.00,25.63,29.15,31.79,14.54,46.72,1026.17,2029.02,3515.24,3114.92,3533.01,600.30,596.63,3.28,0000 0000 0000 0000 000000
2016-06-06 10:35:05,0.02,0.08,0.00,25.65,29.15,31.78,14.47,46.63,1026.08,2029.01,3514.93,3114.32,3532.75,600.12,596.37,3.33,0000 0000 0000 0000 000000
2016-06-06 10:40:06,0.02,0.08,0.00,25.68,29.15,31.76,14.49,46.83,1026.12,2029.01,3514.41,3114.01,3532.11,600.36,596.54,3.38,0000 0000 0000 0000 000000
2016-06-06 10:45:08,0.00,0.08,0.00,25.71,29.15,31.72,14.46,46.68,1026.14,2029.00,3513.99,3113.97,3531.98,599.84,595.99,3.43,0000 0000 0000 0000 000000
2016-06-06 10:50:09,0.04,0.08,0.00,25.73,29.16,31.69,14.51,46.82,1026.14,2029.00,3513.40,3113.55,3531.41,600.26,596.18,3.48,0000 0000 0000 0000 000000
2016-06-06 10:55:10,0.01,0.08,0.00,25.76,29.17,31.67,14.51,46.82,1026.19,2029.00,3512.96,3113.05,3531.00,600.02,596.19,3.53,0000 0000 0000 0000 000000
2016-06-06 11:00:12,0.02,0.08,0.00,25.79,29.17,31.69,14.43,46.69,1026.22,2029.00,3512.14,3112.98,3530.46,599.74,595.79,3.58,0000 0000 0000 0000 000000
2016-06-06 11:05:13,0.03,0.08,0.00,25.82,29.19,31.71,14.44,46.55,1026.20,2029.00,3511.71,3112.50,3530.00,600.11,596.06,3.63,0000 0000 0000 0000 000000
2016-06-06 11:10:13,0.02,0.09,0.00,25.86,29.20,31.72,14.39,46.45,1026.27,2029.00,3511.01,3112.02,3529.55,600.37,596.30,3.68,0000 0000 0000 0000 000000
2016-06-06 11:15:15,0.02,0.09,0.00,25.89,29.21,31.75,14.44,46.60,1026.35,2029.00,3510.27,3111.96,3529.01,599.76,595.60,3.73,0000 0000 0000 0000 000000
2016-06-06 11:20:16,0.02,0.09,0.00,25.91,29.22,31.76,14.49,46.60,1026.34,2029.00,3509.92,3111.44,3528.63,600.16,595.98,3.78,0000 0000 0000 0000 000000
2016-06-06 11:25:17,0.02,0.09,0.00,25.93,29.24,31.78,14.39,46.61,1026.35,2028.99,3509.11,3111.01,3528.01,600.05,595.82,3.83,0000 0000 0000 0000 000000
2016-06-06 11:30:18,0.03,0.09,0.00,25.93,29.25,31.81,14.43,46.46,1026.37,2028.99,3508.38,3110.80,3527.46,600.03,595.80,3.88,0000 0000 0000 0000 000000
2016-06-06 11:35:19,0.03,0.09,0.00,25.92,29.25,31.85,14.50,46.83,1026.38,2028.98,3507.74,3110.10,3526.95,600.11,595.96,3.93,0000 0000 0000 0000 000000
2016-06-06 11:40:21,0.02,0.09,0.00,25.91,29.27,31.87,14.49,46.70,1026.38,2028.97,3506.93,3109.94,3526.21,600.21,596.07,3.98,0000 0000 0000 0000 000000
2016-06-06 11:45:22,0.03,0.10,0.00,25.88,29.27,31.90,14.48,46.83,1026.38,2028.89,3506.09,3109.15,3525.63,600.33,596.12,4.03,0000 0000 0000 0000 000000
2016-06-06 11:50:23,0.02,0.10,0.00,25.85,29.27,31.92,14.36,46.53,1026.38,2028.84,3505.26,3108.99,3525.01,599.35,595.36,4.08,0000 0000 0000 0000 000000
2016-06-06 11:55:25,0.04,0.10,0.00,25.84,29.27,31.92,14.35,46.43,1026.38,2028.88,3504.62,3108.59,3524.43,599.48,595.60,4.13,0000 0000 0000 0000 000000
2016-06-06 12:00:26,0.01,0.10,0.00,25.83,29.27,31.93,14.45,46.66,1026.38,2028.81,3503.90,3108.03,3523.95,599.66,595.72,4.18,0000 0000 0000 0000 000000
2016-06-06 12:05:27,0.02,0.10,0.00,25.80,29.27,31.95,14.47,46.84,1026.36,2028.74,3503.10,3107.89,3523.29,599.87,596.02,4.23,0000 0000 0000 0000 000000
2016-06-06 12:10:28,0.03,0.10,0.00,25.79,29.27,31.94,14.49,46.90,1026.34,2028.66,3502.52,3107.14,3522.92,599.73,595.81,4.28,0000 0000 0000 0000 000000
2016-06-06 12:15:30,0.03,0.10,0.00,25.78,29.27,31.92,14.42,46.45,1026.37,2028.82,3501.80,3107.00,3522.15,599.74,595.98,4.33,0000 0000 0000 0000 000000
2016-06-06 12:20:31,0.02,0.11,0.00,25.77,29.26,31.93,14.43,46.63,1026.38,2028.83,3501.02,3106.80,3521.85,600.03,596.13,4.38,0000 0000 0000 0000 000000
2016-06-06 12:25:32,0.05,0.11,0.00,25.76,29.25,31.91,14.46,46.86,1026.34,2028.89,3500.20,3106.09,3521.07,600.18,596.37,4.43,0000 0000 0000 0000 000000
2016-06-06 12:30:33,0.03,0.11,0.00,25.75,29.25,31.91,14.45,46.67,1026.34,2028.95,3499.26,3105.99,3520.46,600.04,596.22,4.49,0000 0000 0000 0000 000000
2016-06-06 12:35:35,0.02,0.11,0.00,25.75,29.25,31.92,14.46,46.54,1026.36,2028.99,3498.70,3105.79,3520.01,599.79,596.03,4.54,0000 0000 0000 0000 000000
2016-06-06 12:40:36,0.02,0.11,0.00,25.75,29.25,31.95,14.58,46.75,1026.38,2028.99,3498.02,3105.09,3519.78,600.33,596.48,4.59,0000 0000 0000 0000 000000
2016-06-06 12:45:37,0.02,0.11,0.00,25.74,29.25,31.96,14.46,46.62,1026.38,2028.99,3497.32,3104.99,3519.05,599.95,596.20,4.64,0000 0000 0000 0000 000000
2016-06-06 12:50:39,0.01,0.11,0.00,25.73,29.25,31.92,14.48,46.38,1026.38,2028.99,3496.90,3104.68,3518.96,600.07,596.32,4.69,0000 0000 0000 0000 000000
2016-06-06 12:55:39,0.03,0.12,0.00,25.72,29.24,31.92,14.46,46.46,1026.38,2028.99,3496.12,3104.05,3518.21,600.14,596.37,4.74,0000 0000 0000 0000 000000
2016-06-06 13:00:40,0.02,0.12,0.00,25.72,29.23,31.90,14.45,46.39,1026.38,2028.99,3495.55,3103.89,3517.82,600.04,596.32,4.79,0000 0000 0000 0000 000000